Location: Edoum�
(0.9447°N, 10.6482°E)
Time: 13:53:54
(UTC+00:00)

Cosmos 1603 - Pass Details

Date: 07 June 2020
Orbit: 829 x 861 km, 71.0° (Epoch: 07 July)

Event Time Altitude Azimuth Distance (km) Brightness Sun altitude
Rises 04:19:12 0° 186° (S) 3,369 6.5 -12.8°
Reaches altitude 10° 04:21:42 10° 181° (S) 2,433 5.9 -12.2°
Maximum altitude 04:27:07 53° 105° (ESE) 1,006 4.5 -11.0°
Drops below altitude 10° 04:32:31 10° 29° (NNE) 2,428 6.9 -9.7°
Sets 04:35:00 0° 24° (NNE) 3,362 7.6 -9.1°
